Погода в Куме

Иран     34°38′29″N   50°52′28″E
темп.,
°C
ветер,
м/с
пор.,
м/с
влажн.,
%
обл.,
%
осадки,
мм/ч
давл.,
гПа
погр.,
м
24 мая, вт
вт2401:30+28зюз46120 0.0 998148
04:30+24зсз46170 0.0 999105
07:30+21сз813200 0.0 1004648
10:30+26зсз1110150 0.0 10041220
13:30+30сз1111100 0.0 10022226
16:30+33ссз91160 0.0 10002701
19:30+31з101290 0.0 10011260
22:30+27зюз59130 0.0 1005336
25 мая, ср
ср2501:30+25з59160 0.0 1006299
04:30+21зсз510250 0.0 1008216
07:30+22зсз611260 0.0 1011563
10:30+26сз77180 0.0 10101594
13:30+31сз78110 0.0 10083074
16:30+33сз81090 0.0 10053996
19:30+31сз67100 0.0 1005767
22:30+27ссз58190 0.0 1009217
26 мая, чт
чт2601:30+21сз59350 0.0 1011290
04:30+19зсз47410 0.0 1012225
07:30+20зсз46380 0.0 1014275
10:30+25ссз33240 0.0 10121098
13:30+29в32180 0.0 10102093
16:30+31в32150 0.0 10072356
19:30+28с98190 0.0 1009871
22:30+22сз713250 0.0 1012442
27 мая, пт
пт2701:30+21сз47230 0.0 1012216
04:30+19ссз34280 0.0 1013118
07:30+19ссв35280 0.0 1015400
10:30+23всв22210 0.0 1014858
13:30+27в45160 0.0 10121468
16:30+30всв44160 0.0 10091912
19:30+30в76180 0.0 10072412
22:30+28вюв46230 0.1 1010235
28 мая, сб
сб2801:30+25в58280 0.0 1010234
04:30+22всв47390 0.0 1012233
07:30+22св36330 0.0 1014662
10:30+26в810210 0.0 10131432
13:30+30в89170 0.0 10102271
16:30+32в88140 0.0 10062881
19:30+31в781450 0.0 10061925
22:30+29в510174 0.0 1009269